This is the latest recevied weather packets stored in our database for station/object DC3YC-13. If no packets are shown the sender has not sent any weather packets the latest 10 day(s).
| Time | Temp. | Humidity | Pressure | Rain* | Wind** | Luminosity | Snow |
|---|---|---|---|---|---|---|---|
| 1777520790 | 1.11° C | 58% | 1027.2 hPa | 0 mm | - | - | - |
| 1777520190 | 2.22° C | 57% | 1027.2 hPa | 0 mm | - | - | - |
| 1777519590 | 2.22° C | 56% | 1027.2 hPa | 0 mm | - | - | - |
| 1777518990 | 2.22° C | 53% | 1027.2 hPa | 0 mm | - | - | - |
| 1777518390 | 2.78° C | 51% | 1027.2 hPa | 0 mm | - | - | - |
| 1777517790 | 3.89° C | 49% | 1027.2 hPa | 0 mm | - | - | - |
| 1777517190 | 2.78° C | 49% | 1026.1 hPa | 0 mm | - | - | - |
| 1777516590 | 2.78° C | 50% | 1027.2 hPa | 0 mm | - | - | - |
| 1777515990 | 2.78° C | 50% | 1027.2 hPa | 0 mm | - | - | - |
| 1777515390 | 2.78° C | 50% | 1027.2 hPa | 0 mm | - | - | - |
| 1777514790 | 3.89° C | 49% | 1027.2 hPa | 0 mm | - | - | - |
| 1777514190 | 3.89° C | 48% | 1027.2 hPa | 0 mm | - | - | - |
| 1777513590 | 3.89° C | 45% | 1027 hPa | 0 mm | - | - | - |
| 1777512990 | 5° C | 44% | 1027 hPa | 0 mm | - | - | - |
| 1777512390 | 5° C | 44% | 1027 hPa | 0 mm | - | - | - |
| 1777511790 | 5° C | 44% | 1027 hPa | 0 mm | - | - | - |
| 1777511190 | 5° C | 43% | 1026 hPa | 0 mm | - | - | - |
| 1777510590 | 6.11° C | 42% | 1027 hPa | 0 mm | - | - | - |
| 1777509990 | 6.11° C | 42% | 1026 hPa | 0 mm | - | - | - |
| 1777509390 | 6.11° C | 42% | 1026 hPa | 0 mm | - | - | - |
| 1777508790 | 6.11° C | 41% | 1026 hPa | 0 mm | - | - | - |
| 1777508190 | 6.11° C | 41% | 1026 hPa | 0 mm | - | - | - |
| 1777507590 | 6.11° C | 41% | 1026 hPa | 0 mm | - | - | - |
| 1777506990 | 7.22° C | 40% | 1026 hPa | 0 mm | - | - | - |
| 1777506390 | 7.22° C | 39% | 1026 hPa | 0 mm | - | - | - |
* Rain latest hour (hover to see other rain measurements)
** Current wind speed in m/s (hover to see current wind gust speed)